Погода в Ключи

Погода в Ключи : погода сейчас, прогноз погоды и архив. Всё, что Вы хотите узнать о погоде в Ключи!

Поиск расширенной информации на нашем сайте:

Полезная информация: Свежая информация септик с установкой под ключ у нас.

Другие новости

Новости СМИ2

Главная страница сайта

Новости сайта

02.10.2013

Напоминаем, что на нашем новом сайте вы можете получить высокодетализированные прогнозы погоды по пунктам России, СНГ и мира (включающие важные для авиации метеовеличины, такие как направление и скорость ветра, видимость, явления погоды, количество и форма облачности, нижняя и верхняя граница облачности), а также ознакомиться с разнообразными материалами по авиационной метеорологии и подборкой полезных ссылок на эту тему.

Сайт Метеоцентр.Азия посвящён разработке технологий оптимизации авиаметеорологического обслуживания, включая проектирование и перспективное создание нескольких автоматизированных авиаметеорологических систем:
- система выпуска высокодетальных прогностических карт явлений погоды для нижнего воздушного пространства по России и ближнему зарубежью;
- система верификации прогнозов TAF (выпускаемых синоптиками официальных АМСГ РФ и ближнего зарубежья) и AUTOTAF (выпускаемых сайтом Метеоцентр.Азия) - выявление ошибок, онлайн-сопоставление с фактической погодой METAR, автоматическое внесение коррективов в прогнозы при резком отклонении фактической погоды от прогноза, подсчёт оправдываемости прогнозов по элементам и в целом;
- система обработки, анализа и отображения авиаметеорологической информации для применения провайдерами метеорологической информации.

Рекомендуем: 24 И 48 форма Ян-ши тайдзицюань.

Погода в Ключи - сегодня

Время (UTC), дата Ветер
(°,м/с) 
Видим.   Явления Облачность Т
(°С)
Тd
(°С)
f(%) Тe
(°С)
Pmin
(гПа)
dP
(гПа)
Po
(мм)
O2
(г/м3)
Тmin Tmax R s Состояние
почвы
15 24.03.17 150 (ЮВ) 6{10}  20000 м    10/0 средняя 
[Ac und]
+1 -4.5 67 -2  1019.5  -1.9  751  302           
18 24.03.17 180 (Ю) 5{10}  20000 м    10/0 средняя 
[Ac und]
+1.9 -1.6 78 -1  1018.1  -1.3  750  300           
21 24.03.17 190 (Ю) 4{10}  20000 м  {ливн. осадки}  ясно 
+1.5 -0.1 89 -1  1017.9  -0.3  750  301           
00 25.03.17 180 (Ю) 20000 м  {ливн. осадки}  10/0 средняя 
[Ac und]
+1.3 -0.3 89 -1  1017.8  -0.1  750  301  +0    36  неравномерный
мокрый или
старый снег
100% 
03 25.03.17 210 (ЮЗ) 20000 м    10/1 600 м кучево-дожд., средняя 
[Cb cap|Ac und]
+2.2 +0.4 88 1018.2  0.5  750  300           
06 25.03.17 220 (ЮЗ) 20000 м    10/1 600 м кучево-дожд., средняя 
[Cb cap|Ac und]
+2.6 +0.4 85 +1  1018.4  0.2  750  299           
09 25.03.17 250 (З) 20000 м    10/0 средняя 
[Ac und]
+2.3 -1 79 1019.6  1.1  751  300           
12 25.03.17 270 (З) 20000 м  {ливн. осадки}  10/0 средняя 
[Ac und]
+0.6 -2.1 82 -2  1021.4  1.7  753  303    +3.5  0.0     
15 25.03.17 270 (З) 20000 м    10/0 средняя 
[Ac und]
-0.7 -3.1 84 -3  1023.4  1.9  754  305           
18 25.03.17 260 (З) 20000 м    ясно 
-2.6 -4.3 88 -5  1024.9  1.4  755  308           
21 25.03.17 290 (З) 4000 м  дымка  ясно 
-3.5 -4.5 93 -6  1026.6  1.5  756  309           
00 26.03.17 270 (З) 0500 м  туман  4/0 верхняя 
[Ci sp]
-3.7 -4.7 93 -3  1027.9  1.3  757  310  -4.1      31  неравномерный
мокрый или
старый снег
100% 
03 26.03.17 140 (ЮВ) 0200 м  туман  10/0 верхняя 
[Ci sp]
-3 -4 93 -5  1027.8  757  309           
06 26.03.17 170 (Ю) 0500 м  туман  10/0 верхняя 
[Ci sp]
-2 -3 93 -3  1026.5  -1.2  756  307           
09 26.03.17 090 (В) 20000 м  {туман}  9/0 средняя, верхняя 
[Ac As|Ci fib]
-0.7 -2.4 88 -3  1023.6  -2.8  754  305           
12 26.03.17 060 (СВ) 20000 м  {туман}  10/0 средняя 
[As op]
-0.9 -2.5 89 -3  1019.5  -4  751  304    -0.3       
15 26.03.17 130 (ЮВ) 20000 м    10/0 средняя 
[As op]
-0.1 -2 87 -2  1016.3  -3.1  749  302           
18 26.03.17 130 (ЮВ) 20000 м    10/0 средняя 
[Ac und]
-0.4 -1.7 91 -2  1013.1  -3.2  746  301           
21 26.03.17 170 (Ю) 20000 м  слаб. ливневой снег  10/3 600 м кучево-дожд., средняя 
[Cb cap|Ac und]
+0.2 -0.7 94 -2  1010.8  -2.2  745  300           
00 27.03.17 230 (ЮЗ) 20000 м  {ливн. осадки}  10/10 600 м 
[Sc]
+0.9 -0.1 93 -1  1011.8  1.1  746  299  -1.1    30  неравномерный
мокрый или
старый снег
100% 
03 27.03.17 270 (З) 6{10}  1000 м  дымка{ливн. осадки}  10/10 200 м 
[Frnb]
+0.2 -0.8 93 -3  1015.2  3.3  748  301           
06 27.03.17 270 (З) 7-12{12}  20000 м  {ливн. осадки}  10/10 1000 м 
[Sc]
-0.5 -3 83 -4  1019.1  3.7  751  303           
09 27.03.17 250 (З) 5{12}  20000 м    10/10 600 м 
[Sc]
+1 -2.8 76 -2  1021.5  2.5  753  303           
12 27.03.17 200 (Ю) 20000 м    10/10 1000 м 
[Sc]
+1.9 -1.2 80 +1  1023.2  1.6  754  302    +1.9  0.4     
15 27.03.17 190 (Ю) 20000 м    10/10 600 м 
[Sc]
+1.7 -0.8 83 1025  1.8  755  303           
Время (UTC), дата Ветер
(°,м/с) 
Видим.   Явления Облачность Т
(°С)
Тd
(°С)
f(%) Тe
(°С)
Pmin
(гПа)
dP
(гПа)
Po
(мм)
O2
(г/м3)
Тmin Tmax R s Состояние
почвы

Для получения пояснительной информации подведите курсор к названию столбца.

ПОГОДА в Ключи - архив

Всё, что Вы хотите узнать о погоде в Ключи - удобно и подробно!

Выберите нужную дату (начиная с 1 января 2015* года) и нажмите кнопку "Найти".
Будут отображены архивные сводки погоды по пункту Ключи, начиная с указанной даты.


Отображать данные в формате CSV (для использования в таблицах Excel)


Внимание! Наш архив погоды предназначен исключительно для личного некоммерческого использования в познавательных целях. Если Вам необходимы официальные справки о состоянии погоды (для производственных, юридических, коммерческих и т.п. целей), обращайтесь в органы Росгидромета.

*Примечание: данная дата относится к архиву по метеостанциям СССР (Россия, СНГ, Балтия).
Архив по метеостанциям Зарубежной Европы и Азии (кроме Китая) хранится 10 дней, по другим регионам земного шара (Китай, Африка, Америка, Австралия, Океания) - 1 день.

Ключи - район местоположения метеостанции


Название, широта, долгота, высота метеостанции:
Ключи 52.2°ш. 79.1°д. 143 м над ур. моря [Российская Федерация]

Дополнительная информация

В oтличие oт бoльшинства пoгoдных сайтoв мы публикуем пoдрoбную метеoинфoрмацию в детальнoм прoфессиoнальнoм фoрмате.

Характеристики температуры и влажнoсти вoздуха измеряются на высoте 2 м в тени вдали oт зданий и деревьев.
Скoрoсть ветра измеряется на высoте 10 м (на урoвне рoста челoвека скoрoсть ветра ниже в 1.5-2 раза). Если метеoстанция нахoдится в гoрoде или в лесу, тo скoрoсть ветра занижена на 2-4 м/с пo сравнению с oткрытым местoм. Скoрoсть ветра над акватoриями крупных рек и oзёр, а также на вершинах хoлмoв на 2-5 м/с выше, чем в oбычных услoвиях.
Атмoсфернoе давление в разных тoчках местнoсти мoжет значительнo oтличаться oт давления на метеoстанции, в зависимoсти oт услoвий рельефа (при пoдъёме на 10 м давление пoнижается примернo на 1 мм рт.ст.).